Terminal Aerodrome Forecast
Issued by NWS Sioux Falls, SD

Home | Current Version | Previous Version | Graphics & Text | Print | Product List | Glossary Off
Versions: 1 2 3 4 5 6 7 8 9 10 11 12 13 14 15 16

000
FTUS43 KFSD 150203 AAA
TAFHON
TAF AMD
KHON 150203Z 1502/1524 33015G24KT 6SM -SHRA BR BKN010
     FM150400 32014KT P6SM SCT045
     FM150700 31010KT P6SM SKC
     FM151000 30005KT P6SM SKC
     FM151400 24005KT P6SM SCT060
     FM151700 26009KT P6SM SCT060
     FM152000 29013G19KT P6SM SKC=

USA.gov is the U.S. government's official web portal to all federal, state and local government web resources and services.